Location: Onfiano
(44.4833°N, 10.5500°E)
Time: 02:35:15
(UTC+00:00)

Daily predictions for brighter satellites

Satellite Brightness Start Highest point End
(mag) Time Altitude Azimuth Time Altitude Azimuth Time Altitude Azimuth
ADEOS II 4.4 00:02:26 10° ENE 00:05:06 14° E 00:07:44 10° ESE
Cosmos 1867 4.1 00:05:02 36° WSW 00:06:56 54° NW 00:12:20 10° NNE
Cosmos 1674 Rocket 3.8 00:06:55 54° W 00:07:01 54° W 00:11:17 10° N
Cosmos 2221 Rocket 4.4 00:06:47 37° W 00:07:03 38° WNW 00:11:11 10° N
NOSS 2-2 (D) 4.3 00:02:19 10° NW 00:07:30 87° NE 00:11:38 26° SE
Cosmos 1461 4.0 00:03:44 10° NW 00:06:31 34° WNW 00:06:31 34° WNW
Cosmos 2298 Rocket 3.9 00:07:41 60° SSW 00:08:41 84° WNW 00:14:01 10° NNE
Cosmos 1674 4.2 00:10:51 27° WNW 00:10:51 27° WNW 00:13:49 10° NNW
USA 306 2.8 00:11:52 75° E 00:11:52 75° E 00:15:47 10° NE
Cosmos 1238 Rocket 4.5 00:10:58 10° NNW 00:12:06 18° NW 00:12:06 18° NW
Thor Agena Rocket 3.9 00:09:04 10° NNE 00:14:18 58° ESE 00:15:34 46° SSE
USA 307 2.8 00:15:20 71° E 00:15:20 71° E 00:19:14 10° ENE
ATLAS CENTAUR R/B 3.7 00:12:11 10° WNW 00:13:59 16° W 00:13:59 16° W
SL-16 R/B 3.5 00:16:08 24° SE 00:17:49 28° ESE 00:22:32 10° NE
ERBS 3.7 00:22:52 30° ENE 00:22:52 30° ENE 00:24:36 10° NE
Cosmos 1980 3.6 00:20:38 52° SSW 00:22:06 88° WNW 00:27:47 10° NNE
Cosmos 1378 Rocket 4.3 00:22:19 39° W 00:22:39 40° WNW 00:26:51 10° N
Cosmos 2333 Rocket 4.0 00:19:42 13° W 00:23:18 23° NW 00:27:46 10° N
ATLAS 5 CENTAUR R/B 2.6 00:13:49 10° NW 00:24:04 57° WSW 00:24:39 53° SSW
CZ-4C R/B 3.2 00:17:41 10° NW 00:24:53 51° WSW 00:27:53 37° SSW
Cosmos 1455 Rocket 3.7 00:20:34 10° N 00:24:57 52° ENE 00:26:09 39° SE
Cosmos 332 Rocket 3.7 00:28:23 58° SSE 00:29:11 72° ESE 00:33:58 10° NNE
NOSS 0 Rocket 4.1 00:29:23 38° SW 00:31:47 64° WNW 00:38:00 10° NNE
USA 32 4.1 00:35:14 50° SW 00:36:29 68° W 00:41:45 10° N
Meteor 1-24 Rocket 4.2 00:34:53 32° SSE 00:37:08 50° E 00:42:25 10° NNE
Meteor 2-10 Rocket 3.6 00:33:45 10° NNW 00:39:27 83° W 00:41:17 44° S
Cosmos 1975 Rocket 3.0 00:39:39 59° SSE 00:40:26 79° E 00:44:55 10° N
Cosmos 839 Rocket 4.3 00:38:46 10° NW 00:45:08 62° WSW 00:49:12 28° S
USA 308 3.0 00:44:46 50° W 00:45:40 68° NNW 00:49:51 10° NE
Cosmos 2219 Rocket 4.2 00:42:56 11° W 00:46:39 20° NW 00:50:43 10° N
Cosmos 1025 Rocket 3.0 00:47:03 55° SSE 00:47:55 76° E 00:52:13 10° NNE
Cosmos 1455 3.6 00:47:37 10° N 00:51:01 33° ENE 00:52:38 23° ESE
Cosmos 1269 Rocket 4.1 00:46:36 10° NNW 00:51:54 74° ENE 00:55:07 24° SSE
GP-B 3.5 00:53:07 10° N 00:57:23 47° W 00:58:07 43° WSW
Meteor 2-5 Rocket 3.7 00:55:37 38° S 00:57:59 87° ESE 01:03:43 10° N
Lacrosse 5 1.9 00:58:31 44° SSW 00:59:56 64° SE 01:05:00 10° NE
CZ-2D R/B 2.1 00:54:52 10° NNE 01:00:16 77° ESE 01:02:28 36° S
Cosmos 1300 3.8 00:58:27 10° NNW 01:01:27 29° W 01:01:27 29° W
USA 267 4.2 01:02:15 26° WSW 01:02:15 26° WSW 01:07:15 10° WNW
USA 305 3.8 01:07:08 24° W 01:09:16 43° NNW 01:13:16 10° NE
Cosmos 1544 Rocket 3.5 01:06:53 10° N 01:11:20 84° E 01:13:10 35° SSE
USA 229 DEB 4.4 01:05:15 10° NW 01:12:04 39° WSW 01:15:06 28° SSW
USA 229 4.4 01:05:21 10° NW 01:12:09 39° WSW 01:15:15 28° SSW
Cosmos 2237 Rocket 3.1 01:11:28 24° WSW 01:14:14 39° NW 01:19:36 10° NNE
SL-16 R/B 2.5 01:14:42 21° SSE 01:19:04 82° WSW 01:25:22 10° NNW
AQUA 3.9 01:14:48 10° NNE 01:19:36 75° ESE 01:21:49 32° S
Helios 1A 3.8 01:16:53 14° SE 01:20:16 50° ENE 01:24:22 10° N
Lacrosse 5 rocket 1.3 01:21:54 46° S 01:22:46 60° SE 01:26:46 10° NE
SAR-Lupe-2 3.5 01:19:34 10° NNE 01:23:09 77° ESE 01:24:09 45° S
SME Rocket 3.8 01:24:35 32° WSW 01:25:05 33° W 01:29:24 10° NNW
Resurs 1-4 Rocket 2.3 01:24:13 10° N 01:29:24 59° WNW 01:31:56 29° SW
Cosmos 2074 Rocket 4.0 01:23:19 10° N 01:29:37 75° W 01:33:59 21° S
Cosmos 1943 Rocket 2.1 01:28:53 10° NNW 01:34:32 68° WSW 01:39:28 14° SSE
Cosmos 2297 3.7 01:28:45 10° NNW 01:34:32 86° WSW 01:40:16 10° SSE
Cosmos 1703 3.8 01:35:52 23° SSE 01:38:06 54° E 01:41:57 10° NNE
CRYOSAT 2 4.3 01:38:47 25° S 01:41:36 70° W 01:46:29 10° N
Cosmos 2184 Rocket 4.1 01:38:18 10° NNW 01:44:27 60° W 01:48:45 20° SSW
Cosmos 2278 Rocket 3.8 01:41:52 10° WNW 01:45:02 15° W 01:45:23 15° WSW
ADEOS II 2.1 01:40:06 10° NNE 01:45:23 79° WNW 01:48:40 24° SSW
IDEFIX/ARIANE 42P 2.6 01:41:00 10° NNE 01:46:19 88° ESE 01:49:52 21° SSW
Cosmos 1610 Rocket 4.4 01:42:08 10° N 01:48:18 85° W 01:54:08 11° S
Cosmos 292 Rocket 3.7 01:48:10 25° SSW 01:51:02 87° ESE 01:55:51 10° NNE
Cosmos 2084 Rocket 4.5 01:49:15 19° W 01:51:18 31° NW 01:54:43 10° NNE
USA 307 4.5 01:51:15 10° W 01:54:59 30° NNW 01:58:44 10° NE
NPP 4.3 01:52:15 10° N 01:57:19 42° WNW 02:00:36 20° SW
Cosmos 2369 Rocket 2.3 01:54:13 10° NNW 01:59:50 77° ENE 02:05:25 10° SSE
SL-16 R/B 2.7 01:58:00 20° SW 02:01:39 47° WNW 02:07:08 10° NNE
Cosmos 2228 3.0 01:58:55 10° N 02:03:18 86° W 02:07:33 10° S
IRS-1D 3.7 01:57:57 10° NNE 02:03:19 76° ESE 02:07:54 14° S
Cosmos 614 Rocket 4.0 01:58:15 10° NNW 02:03:23 61° WSW 02:08:31 10° S
EO 1 Del DPAF 3.3 02:00:05 10° N 02:03:31 53° WNW 02:05:17 25° SW
Meteor 1-28 Rocket 3.6 02:03:37 24° SSW 02:05:26 41° W 02:09:00 10° NNW
Cosmos 2251 Rocket 3.5 02:00:08 10° NNW 02:05:26 86° ENE 02:10:44 10° SSE
COSMOS 2455 2.9 02:04:48 19° SW 02:09:11 75° WNW 02:15:15 10° NNE
Cosmos 1656 Rocket 3.8 02:03:48 10° NNW 02:09:14 73° ENE 02:14:38 10° SSE
Cosmos 1536 Rocket 4.2 02:08:03 21° SW 02:10:32 40° WNW 02:14:43 10° N
COSMOS 2441 4.4 02:13:44 10° N 02:18:36 76° WNW 02:22:48 14° SSW
Cosmos 1408 4.4 02:16:28 10° SSE 02:19:39 29° E 02:22:49 10° NNE
Nadezhda 1 Rocket 4.4 02:15:05 16° SW 02:19:57 49° WNW 02:26:03 10° N
MSX 4.0 02:17:38 10° N 02:23:19 62° WNW 02:28:25 13° SSW
Cosmos 1603 3.9 02:19:47 11° SSW 02:25:03 69° ESE 02:30:43 10° NNE
MOS 1 Rocket 4.4 02:23:22 17° SW 02:25:18 22° W 02:28:41 10° NW
Cosmos 1455 3.9 02:23:53 10° NW 02:26:12 16° W 02:27:23 14° WSW
Cosmos 1271 Rocket 3.8 02:26:57 10° NNW 02:30:14 27° W 02:32:44 15° SW
Cosmos 1606 Rocket 3.6 02:30:06 10° NNW 02:34:28 61° W 02:38:46 10° S
ALOS 3.0 02:33:08 10° NNE 02:37:43 52° E 02:42:16 10° S
CZ-2D R/B 4.0 02:36:17 10° NNW 02:39:39 17° WNW 02:42:58 10° W
CZ-2C R/B 3.2 02:34:51 10° NNE 02:39:54 55° E 02:44:46 10° S
Lacrosse 5 3.1 02:38:34 10° W 02:43:13 34° NNW 02:47:53 10° NE
Helios 1B rocket 2.4 02:40:27 10° N 02:44:31 79° WNW 02:48:34 10° SSW
Cosmos 2366 rocket 4.0 02:40:37 10° N 02:46:47 84° W 02:52:59 10° S
Cosmos 2341 Rocket 4.2 02:41:01 10° NNW 02:47:17 59° W 02:53:31 10° S
Meteor 2-1 Rocket 4.5 02:46:17 10° NNW 02:51:50 51° W 02:57:15 10° SSW
BREEZE-M DEB (TANK) 2.3 02:47:13 10° WSW 02:51:50 75° SSE 02:54:06 10° ENE
Meteor 1-11 4.4 02:47:25 10° S 02:53:14 86° E 02:59:03 10° NNE
Cosmos 407 Rocket 3.5 02:48:04 10° NNW 02:53:21 65° WSW 02:58:33 10° S
SL-8 Rocket 4.1 02:47:48 10° NNW 02:54:02 62° W 03:00:14 10° S
Okean 1-7 Rocket 4.3 02:50:34 10° S 02:54:53 55° E 02:59:12 10° NNE
Cosmos 1371 Rocket 4.1 02:50:01 10° SSW 02:55:09 83° ESE 03:00:23 10° NNE
Cosmos 1328 4.4 02:52:28 10° SSW 02:56:12 40° WNW 02:59:59 10° N
Cosmos 1943 3.4 02:50:56 10° SW 02:56:34 63° WNW 03:02:14 10° NNE
Genesis I 3.2 02:57:00 10° NW 03:01:03 70° WSW 03:04:59 10° SSE
Lacrosse 5 rocket 2.9 02:58:42 10° W 03:02:07 27° NNW 03:05:42 10° NNE
SL-16 R/B 4.2 03:00:51 10° WSW 03:03:35 13° W 03:06:20 10° WNW
Meteor 1-29 3.3 03:00:21 10° NNE 03:03:35 61° ESE 03:06:48 10° S
Cosmos 1140 Rocket 3.7 02:59:11 10° NNW 03:04:15 49° WSW 03:09:16 10° S
Lacrosse 4 Rocket 2.7 03:04:47 10° S 03:08:48 39° ESE 03:12:45 10° NE
SeaSat 1 3.1 03:04:31 10° NE 03:09:23 54° ESE 03:14:12 10° SSW
Cosmos 1892 Rocket 4.2 03:05:46 10° SSW 03:09:59 41° WNW 03:14:15 10° N
IRS-1C 4.2 03:06:04 10° NNE 03:11:26 81° WNW 03:16:45 10° SSW
